Location: Cambridge (historical)
(38.6883°N, 119.0140°W)
Time: 11:56:29
(UTC+00:00)

ATLAS 3B R/B - Pass Details

Date: 29 October 2020
Orbit: 1014 x 1181 km, 63.8° (Epoch: 23 November)

Event Time Altitude Azimuth Distance (km) Brightness Sun altitude
Exits shadow 12:44:57 31° 262° (W) 1,701 3.2 -19.1°
Maximum altitude 12:47:29 44° 310° (NW) 1,384 2.9 -18.6°
Drops below altitude 10° 12:53:47 10° 22° (NNE) 2,836 5.1 -17.4°
Sets 12:56:36 0° 29° (NNE) 3,809 5.9 -16.9°
